Lincoln, NE

8:58 AM CDT on July 27, 2017 (GMT -0500)
Lincoln Municipal

Weather History for KLNK - June, 2014

Change the Weather History Date:

Sunday, June 29, 2014

  Actual Average Record
Temperature  
Mean Temperature 78 °F 76 °F  
Max Temperature 91 °F 88 °F 104 °F (1974)
Min Temperature 65 °F 65 °F 44 °F (1940)
Degree Days  
Heating Degree Days 0 0  
Month to date heating degree days 2 13  
Since 1 June heating degree days 2 13  
Since 1 July heating degree days 6484 6053  
Cooling Degree Days 13 11  
Month to date cooling degree days 267 231  
Year to date cooling degree days 427 310  
Since 1 June cooling degree days 267 231  
Growing Degree Days 28 (Base 50)    
Moisture  
Dew Point 69 °F    
Average Humidity 70    
Maximum Humidity 93    
Minimum Humidity 47    
Precipitation  
Precipitation 0.00 in 0.13 in 2.86 in (1965)
Month to date precipitation 5.90 4.22  
Year to date precipitation 15.65 14.56  
Snow  
Snow 0.00 in 0.00 in - ()
Month to date snowfall 0.0 0.0  
Since 1 July snowfall 18.2 25.9  
Snow Depth 0.00 in    
Sea Level Pressure  
Sea Level Pressure 29.82 in    
Wind  
Wind Speed 8 mph (SSW)    
Max Wind Speed 16 mph    
Max Gust Speed 20 mph    
Visibility 9 miles    
Events      
T = Trace of Precipitation, MM = Missing Value Source: NWS Daily Summary

Daily Weather History Graph

Daily Weather History Graph

Search for Another Location

Airport or City:

Trip Planner

Search our weather history database for the weather conditions in past years. The results will help you decide how hot, cold, wet, or windy it might be!

Date:

Astronomy

Jun. 29, 2014 Rise Set
Actual Time 5:58 AM CDT 9:02 PM CDT
Civil Twilight 5:24 AM CDT 9:36 PM CDT
Nautical Twilight 4:42 AM CDT 10:18 PM CDT
Astronomical Twilight 3:51 AM CDT 11:08 PM CDT
Moon 8:18 AM CDT (6/29) 10:22 PM CDT (6/29)
Length of Visible Light 16h 11m
Length of Day
15h 04m
Waxing Crescent, 5% of the Moon is Illuminated
Jun 29
Waxing Crescent
Jul 5
First Quarter
Jul 12
Full
Jul 18
Last Quarter
Jul 26
New

Hourly Weather History & Observations

Time (CDT) Temp. Heat Index Dew Point Humidity Pressure Visibility Wind Dir Wind Speed Gust Speed Precip Events Conditions
12:54 AM 70.0 °F - 63.0 °F 78% 29.83 in 10.0 mi South 8.1 mph - N/A   Clear
1:54 AM 70.0 °F - 64.0 °F 81% 29.83 in 10.0 mi SSE 9.2 mph - N/A   Clear
2:54 AM 66.9 °F - 63.0 °F 87% 29.82 in 10.0 mi South 8.1 mph - N/A   Clear
3:54 AM 64.9 °F - 62.1 °F 90% 29.81 in 10.0 mi South 8.1 mph - N/A   Clear
4:54 AM 66.0 °F - 62.1 °F 87% 29.80 in 10.0 mi South 9.2 mph - N/A   Clear
5:54 AM 68.0 °F - 64.0 °F 87% 29.81 in 10.0 mi SSW 6.9 mph - N/A   Clear
6:10 AM 68.0 °F - 64.9 °F 90% 29.85 in 10.0 mi SSW 8.1 mph - N/A   Mostly Cloudy
6:23 AM 69.1 °F - 64.9 °F 87% 29.84 in 10.0 mi South 9.2 mph - N/A   Overcast
6:54 AM 70.0 °F - 66.9 °F 90% 29.81 in 9.0 mi SSW 10.4 mph - N/A   Overcast
7:54 AM 72.0 °F - 68.0 °F 87% 29.84 in 5.0 mi WSW 6.9 mph - N/A   Overcast
8:02 AM 72.0 °F - 69.1 °F 91% 29.87 in 4.0 mi SW 4.6 mph - N/A   Overcast
8:38 AM 73.0 °F - 69.1 °F 87% 29.88 in 4.0 mi West 3.5 mph - N/A   Overcast
8:54 AM 73.0 °F - 69.1 °F 87% 29.86 in 5.0 mi Calm Calm - N/A   Overcast
9:26 AM 73.9 °F - 70.0 °F 87% 29.89 in 5.0 mi SW 3.5 mph - N/A   Overcast
9:50 AM 75.2 °F - 69.8 °F 83% 29.90 in 6.0 mi NW 6.9 mph - N/A   Haze
9:54 AM 75.0 °F - 70.0 °F 84% 29.87 in 6.0 mi NW 5.8 mph - N/A   Haze
10:00 AM 75.0 °F - 70.0 °F 84% 29.89 in 7.0 mi NNW 3.5 mph - N/A   Mostly Cloudy
10:09 AM 75.9 °F - 70.0 °F 82% 29.90 in 7.0 mi North 4.6 mph - N/A   Mostly Cloudy
10:54 AM 79.0 °F - 71.1 °F 77% 29.86 in 8.0 mi West 4.6 mph - N/A   Overcast
11:09 AM 78.1 °F - 71.1 °F 79% 29.90 in 8.0 mi WSW 5.8 mph - N/A   Overcast
11:18 AM 79.0 °F - 71.1 °F 77% 29.89 in 9.0 mi SSW 6.9 mph - N/A   Mostly Cloudy
11:22 AM 80.1 °F 83.6 °F 71.1 °F 74% 29.89 in 9.0 mi SW 8.1 mph - N/A   Scattered Clouds
11:54 AM 82.0 °F 86.3 °F 71.1 °F 69% 29.85 in 10.0 mi SW 12.7 mph - N/A   Partly Cloudy
12:54 PM 81.0 °F 84.4 °F 70.0 °F 69% 29.81 in 10.0 mi South 10.4 mph - N/A   Clear
1:54 PM 84.0 °F 89.0 °F 71.1 °F 65% 29.80 in 10.0 mi Variable 4.6 mph - N/A   Clear
2:54 PM 86.0 °F 90.7 °F 70.0 °F 59% 29.79 in 10.0 mi WSW 6.9 mph - N/A   Clear
3:54 PM 90.0 °F 92.8 °F 66.9 °F 46% 29.78 in 10.0 mi SW 15.0 mph 20.7 mph N/A   Partly Cloudy
4:54 PM 90.0 °F 93.6 °F 68.0 °F 48% 29.77 in 10.0 mi WSW 13.8 mph - N/A   Clear
5:54 PM 87.1 °F 91.3 °F 69.1 °F 55% 29.75 in 10.0 mi SSW 12.7 mph - N/A   Mostly Cloudy
6:54 PM 84.9 °F 90.7 °F 72.0 °F 65% 29.74 in 10.0 mi South 12.7 mph - N/A   Mostly Cloudy
7:54 PM 84.0 °F 90.2 °F 73.0 °F 69% 29.73 in 10.0 mi South 6.9 mph - N/A   Scattered Clouds
8:54 PM 82.9 °F 88.8 °F 73.0 °F 72% 29.73 in 10.0 mi SSW 5.8 mph - N/A   Partly Cloudy
9:54 PM 78.1 °F - 72.0 °F 81% 29.74 in 9.0 mi South 8.1 mph - N/A   Clear
10:54 PM 75.9 °F - 71.1 °F 85% 29.76 in 10.0 mi SSE 6.9 mph - N/A   Clear
11:54 PM 75.9 °F - 72.0 °F 87% 29.76 in 8.0 mi South 6.9 mph - N/A   Clear